Flag for U.S.A. Weather past 2 weeks in Jacksonville, North Carolina, U.S.A.

Now
75 °F

Overcast.


Feels Like: 76 °F
Forecast: 67 / 84 °F
Wind: 8 mph from South

Location: Jacksonville - New River

Current Time: May 27, 2015 at 8:46:48 PM

Latest Report: May 27, 2015 at 7:56 PM


Visibility: 10 mi

Pressure: 30.23 "Hg

Humidity: 74%

Dew point: 66 °F

Location of JacksonvilleLocation

Historic Weather in Jacksonville — Graph

°F

Jacksonville temperature yesterday

Maximum temperature yesterday: 82 °F (at 12:56 PM)
Minimum temperature yesterday: 62 °F (at 4:56 AM)
Average temperature yesterday: 73 °F

Past Weeks' High & Low Weather Summary

 TemperatureHumidityPressure
High90 °F (May 19, 2:56 PM)93% (May 16, 1:56 AM)30.42 "Hg (May 16, 1:56 AM)
Low53 °F (May 23, 3:56 AM)31% (May 23, 12:56 PM)29.75 "Hg (May 21, 3:56 PM)
Average71 °F70%30.19 "Hg
* Reported May 12 6:56 PM — May 27 6:56 PM, Jacksonville, Weather by CustomWeather, © 2015

Note: Actual official high and low records may vary slightly from our data, if they occured in-between our weather recording intervals... More about our weather records

Advertising

Jacksonville weather history for previous 24 hours

 ConditionsComfort  
Time TempWeatherWind HumidityBarometerVisibility
6:56 PM
Wed, May 27
76 °FPartly sunny.13 mph72%30.22 "Hg10 mi
5:56 PM80 °FOvercast.14 mph62%30.22 "Hg10 mi
4:56 PM80 °FPartly sunny.15 mph64%30.22 "Hg10 mi
3:56 PM81 °FMostly cloudy.18 mph65%30.24 "Hg10 mi
2:56 PM80 °FPartly sunny.14 mph64%30.24 "Hg10 mi
1:56 PM82 °FBroken clouds.15 mph63%30.26 "Hg10 mi
12:56 PM81 °FPartly sunny.10 mph62%30.27 "Hg10 mi
11:56 AM83 °FScattered clouds.14 mph61%30.27 "Hg10 mi
10:56 AM81 °FPartly sunny.8 mph67%30.28 "Hg10 mi
9:56 AM79 °FMostly cloudy.8 mph69%30.28 "Hg10 mi
8:56 AM77 °FMostly cloudy.7 mph77%30.28 "Hg10 mi
7:56 AM77 °FScattered clouds.9 mph77%30.26 "Hg10 mi
6:56 AM74 °FPassing clouds.7 mph88%30.25 "Hg10 mi
5:56 AM72 °FOvercast.3 mph91%30.25 "Hg10 mi
4:56 AM73 °FOvercast.6 mph88%30.23 "Hg10 mi
3:56 AM73 °FMostly cloudy.No wind84%30.23 "Hg10 mi
2:56 AM73 °FMostly cloudy.3 mph84%30.24 "Hg10 mi
1:56 AM72 °FPassing clouds.3 mph84%30.26 "Hg10 mi
12:56 AM73 °FClear.6 mph81%30.27 "Hg10 mi
11:56 PM
Tue, May 26
73 °FClear.9 mph81%30.27 "Hg10 mi
10:56 PM74 °FClear.9 mph79%30.28 "Hg10 mi
9:56 PM74 °FClear.7 mph79%30.27 "Hg10 mi
8:56 PM75 °FPartly sunny.7 mph79%30.26 "Hg10 mi
Weather by CustomWeather, © 2015

See weather overviewHow to use our weather pages